Location: Ergnies
(50.0854°N, 2.0375°E)
Time: 11:15:53
(UTC+00:00)

IRS-1D - Pass Details

Date: 14 January 2026
Orbit: 737 x 810 km, 98.8° (Epoch: 10 February)

Event Time Altitude Azimuth Distance (km) Brightness Sun altitude
Rises 05:54:28 0° 10° (N) 3,326 6.8 -17.2°
Reaches altitude 10° 05:56:53 10° 4° (N) 2,398 6.0 -16.8°
Maximum altitude 06:01:53 43° 294° (WNW) 1,125 3.9 -16.0°
Drops below altitude 10° 06:06:52 10° 225° (SW) 2,393 5.8 -15.2°
Sets 06:09:17 0° 219° (SW) 3,319 6.6 -14.9°
